sat.trackr.live / text

‹ back to catalog

2024-174C

NORAD 61240 · 2024-174C

PAYLOAD ACTIVE UNKNOWN

§ Identity

Operator
Country
PRC
Launch date
2024-09-24
Launch site
JSC
Launch vehicle
Mass (kg)
RCS (m²)

External: N2YO · Heavens-Above · Gunter

§ Orbital elements

Epoch: 2026-05-25T05:01:12.374400Z

Period
94.82 min
Inclination
97.4424°
Eccentricity
0.0000538
Mean motion
15.18697835 rev/d
Perigee alt
509.4 km
Apogee alt
510.1 km
Semi-major
6,887.9 km
B*
1.7558e-4
RAAN
153.4998°
Arg perigee
28.5512°
Mean anomaly
331.5752°
Rev number
9,219

§ Raw data

2024-174C1 61240U 24174C   26145.20917100  .00003574  00000+0  17558-3 0  99962 61240  97.4424 153.4998 0000538  28.5512 331.5752 15.18697835 92193

JSON: /api/v1/satellites/61240 · /tle

For live sub-satellite position, see the globe view (requires WebGL).

§ Visibility from observer

Set your observer location to see the next 7 days of passes ≥ 10°. The values pass through the URL so the page stays shareable.

No JS? Fill the form by hand. The geolocation button needs JavaScript.